LOT5EP EPWA-LUKK

Flight info

Callsign LOT5EP
Flight time 1h 25m
Altitude 37000
Route XIMBA DCT OMAVA DCT ROBTU DCT KENIN DCT KARIL DCT BUSES
Aircraft B738/M-SDFGHILORVWXYZ/LB1

Departure

Time 2026-05-04 16:29
Airport Warsaw Chopin Airport (EPWA)

Arrival

Time 2026-05-04 17:55
Airport Chişinău International Airport (LUKK)
Time Latitude Longitude Altitude Speed Heading
2026-05-04 15:47 52.17619 20.96687 336 ft 0 kts 237°
2026-05-04 16:19 52.17639 20.96723 332 ft 2 kts 207°
2026-05-04 16:20 52.17667 20.96720 336 ft 0 kts 150°
2026-05-04 16:23 52.17648 20.96738 335 ft 7 kts 148°
2026-05-04 16:24 52.17462 20.96575 335 ft 9 kts 157°
2026-05-04 16:25 52.17324 20.96693 337 ft 15 kts 152°
2026-05-04 16:26 52.16840 20.97116 335 ft 19 kts 151°
2026-05-04 16:26 52.16558 20.97429 335 ft 12 kts 113°
2026-05-04 16:27 52.16489 20.97679 338 ft 12 kts 117°
2026-05-04 16:28 52.16320 20.97734 335 ft 10 kts 205°
2026-05-04 16:28 52.16400 20.97336 336 ft 64 kts 295°
2026-05-04 16:29 52.18028 20.91363 1985 ft 174 kts 285°
2026-05-04 16:30 52.17454 20.84606 3274 ft 222 kts 257°
2026-05-04 16:31 52.16758 20.79140 4173 ft 261 kts 259°
2026-05-04 16:31 52.15252 20.70790 6920 ft 259 kts 234°
2026-05-04 16:32 52.10259 20.67523 8480 ft 316 kts 168°
2026-05-04 16:33 52.06310 20.71472 9556 ft 347 kts 143°
2026-05-04 16:33 52.02726 20.76857 11011 ft 353 kts 140°
2026-05-04 16:34 51.99131 20.82308 12476 ft 359 kts 141°
2026-05-04 16:34 51.97282 20.85053 13243 ft 362 kts 141°
2026-05-04 16:35 51.91582 20.93356 15360 ft 373 kts 142°
2026-05-04 16:35 51.85619 21.01939 17343 ft 388 kts 142°
2026-05-04 16:36 51.83589 21.04854 18019 ft 393 kts 142°
2026-05-04 16:36 51.79453 21.10766 19191 ft 401 kts 142°
2026-05-04 16:37 51.75246 21.16773 20364 ft 407 kts 141°
2026-05-04 16:37 51.73116 21.19810 20932 ft 411 kts 141°
2026-05-04 16:37 51.68789 21.25970 22019 ft 419 kts 141°
2026-05-04 16:38 51.64372 21.32240 22984 ft 428 kts 140°
2026-05-04 16:39 51.57595 21.41830 24445 ft 435 kts 140°
2026-05-04 16:39 51.53018 21.48284 25318 ft 440 kts 140°
2026-05-04 16:40 51.48388 21.54796 26158 ft 445 kts 141°
2026-05-04 16:40 51.43707 21.61364 26965 ft 449 kts 141°
2026-05-04 16:41 51.38661 21.67244 27696 ft 450 kts 159°
2026-05-04 16:41 51.29495 21.69469 28808 ft 449 kts 181°
2026-05-04 16:42 51.20038 21.69799 29780 ft 457 kts 180°
2026-05-04 16:43 51.13656 21.70096 30339 ft 461 kts 180°
2026-05-04 16:43 51.07256 21.70432 31105 ft 458 kts 180°
2026-05-04 16:43 51.04075 21.70604 31527 ft 456 kts 180°
2026-05-04 16:44 50.91384 21.71277 32718 ft 460 kts 180°
2026-05-04 16:45 50.84981 21.71614 33383 ft 458 kts 180°
2026-05-04 16:46 50.75485 21.72112 34428 ft 454 kts 180°
2026-05-04 16:46 50.69166 21.72441 34924 ft 455 kts 180°
2026-05-04 16:47 50.62839 21.72771 35449 ft 454 kts 180°
2026-05-04 16:47 50.56580 21.73096 36005 ft 452 kts 180°
2026-05-04 16:48 50.47153 21.73585 36765 ft 451 kts 180°
2026-05-04 16:48 50.44017 21.73746 36979 ft 451 kts 180°
2026-05-04 16:49 50.31380 21.74398 36972 ft 453 kts 179°
2026-05-04 16:50 50.18798 21.75042 36963 ft 452 kts 179°
2026-05-04 16:51 50.09381 21.75522 36971 ft 452 kts 179°
2026-05-04 16:52 49.96789 21.76162 36971 ft 454 kts 179°
2026-05-04 16:53 49.87301 21.76641 36992 ft 455 kts 179°
2026-05-04 16:54 49.74594 21.77281 37001 ft 458 kts 179°
2026-05-04 16:55 49.55332 21.78244 37014 ft 464 kts 179°
2026-05-04 16:56 49.39365 21.79450 37009 ft 458 kts 175°
2026-05-04 16:57 49.29706 21.80838 37030 ft 467 kts 175°
2026-05-04 16:58 49.16879 21.82525 37020 ft 458 kts 176°
2026-05-04 17:00 48.97857 21.84948 37050 ft 464 kts 176°
2026-05-04 17:01 48.82807 21.86859 37044 ft 466 kts 176°
2026-05-04 17:02 48.69899 21.88490 37046 ft 464 kts 176°
2026-05-04 17:03 48.60268 21.89701 37049 ft 462 kts 176°
2026-05-04 17:03 48.50668 21.90906 37041 ft 461 kts 176°
2026-05-04 17:04 48.37934 21.92775 37044 ft 460 kts 166°
2026-05-04 17:05 48.32015 21.96299 37046 ft 459 kts 148°
2026-05-04 17:05 48.26584 22.01336 37054 ft 460 kts 147°
2026-05-04 17:06 48.18416 22.08933 37057 ft 462 kts 148°
2026-05-04 17:07 48.11099 22.15605 37060 ft 463 kts 148°
2026-05-04 17:07 48.04649 22.21452 37063 ft 465 kts 148°
2026-05-04 17:08 47.96343 22.28964 37060 ft 466 kts 148°
2026-05-04 17:09 47.90795 22.33969 37063 ft 466 kts 148°
2026-05-04 17:09 47.85241 22.38966 37062 ft 466 kts 148°
2026-05-04 17:10 47.80293 22.45002 37079 ft 460 kts 122°
2026-05-04 17:10 47.77455 22.58218 37060 ft 452 kts 98°
2026-05-04 17:11 47.76354 22.67418 37052 ft 452 kts 98°
2026-05-04 17:12 47.74628 22.81198 37051 ft 452 kts 99°
2026-05-04 17:13 47.71628 23.04127 37047 ft 452 kts 99°
2026-05-04 17:14 47.69196 23.22433 37059 ft 452 kts 99°
2026-05-04 17:15 47.67354 23.36142 37065 ft 451 kts 99°
2026-05-04 17:16 47.64878 23.54376 37046 ft 451 kts 100°
2026-05-04 17:17 47.62376 23.72570 37061 ft 450 kts 100°
2026-05-04 17:18 47.59844 23.90753 37060 ft 450 kts 100°
2026-05-04 17:19 47.57285 24.08904 37069 ft 450 kts 100°
2026-05-04 17:20 47.54694 24.27065 37067 ft 451 kts 100°
2026-05-04 17:20 47.52729 24.40693 37062 ft 451 kts 101°
2026-05-04 17:21 47.50089 24.58808 37082 ft 451 kts 101°
2026-05-04 17:22 47.48758 24.67866 37059 ft 451 kts 101°
2026-05-04 17:23 47.46084 24.85903 37074 ft 450 kts 101°
2026-05-04 17:24 47.44048 24.99492 37068 ft 450 kts 101°
2026-05-04 17:25 47.41307 25.17514 37076 ft 449 kts 101°
2026-05-04 17:26 47.38565 25.35434 37073 ft 449 kts 101°
2026-05-04 17:27 47.35079 25.57936 37076 ft 449 kts 102°
2026-05-04 17:27 47.33667 25.66968 36639 ft 453 kts 102°
2026-05-04 17:28 47.32252 25.75963 36127 ft 449 kts 102°
2026-05-04 17:29 47.30124 25.89393 34850 ft 449 kts 102°
2026-05-04 17:29 47.27991 26.02756 33012 ft 445 kts 102°
2026-05-04 17:30 47.25886 26.15827 31930 ft 435 kts 102°
2026-05-04 17:31 47.24475 26.24539 31104 ft 434 kts 102°
2026-05-04 17:31 47.22394 26.37293 29989 ft 412 kts 102°
2026-05-04 17:32 47.21086 26.45237 28854 ft 393 kts 102°
2026-05-04 17:33 47.19179 26.56805 26752 ft 380 kts 102°
2026-05-04 17:33 47.18557 26.60555 26096 ft 375 kts 101°
2026-05-04 17:34 47.16727 26.71554 24656 ft 366 kts 101°
2026-05-04 17:34 47.16123 26.75171 24260 ft 364 kts 101°
2026-05-04 17:35 47.14322 26.85901 23005 ft 357 kts 101°
2026-05-04 17:35 47.13136 26.92924 22217 ft 351 kts 101°
2026-05-04 17:35 47.12549 26.96394 21817 ft 348 kts 101°
2026-05-04 17:36 47.11967 26.99822 21437 ft 345 kts 101°
2026-05-04 17:36 47.11387 27.03234 21066 ft 343 kts 101°
2026-05-04 17:36 47.10813 27.06609 20692 ft 340 kts 101°
2026-05-04 17:36 47.10240 27.09965 20330 ft 338 kts 101°
2026-05-04 17:37 47.09671 27.13298 19956 ft 335 kts 101°
2026-05-04 17:37 47.09104 27.16609 19589 ft 333 kts 101°
2026-05-04 17:37 47.08539 27.19898 19233 ft 332 kts 101°
2026-05-04 17:37 47.07978 27.23170 18865 ft 330 kts 101°
2026-05-04 17:38 47.07417 27.26424 18501 ft 329 kts 101°
2026-05-04 17:38 47.06858 27.29668 18114 ft 327 kts 101°
2026-05-04 17:38 47.06302 27.32888 17735 ft 325 kts 101°
2026-05-04 17:38 47.05748 27.36088 17348 ft 323 kts 101°
2026-05-04 17:39 47.04649 27.42412 16627 ft 318 kts 100°
2026-05-04 17:39 47.04106 27.45532 16269 ft 315 kts 101°
2026-05-04 17:39 47.03566 27.48630 15910 ft 312 kts 100°
2026-05-04 17:40 47.03037 27.51654 15589 ft 310 kts 100°
2026-05-04 17:40 47.02504 27.54706 15240 ft 308 kts 100°
2026-05-04 17:40 47.01972 27.57742 14899 ft 306 kts 100°
2026-05-04 17:40 47.01444 27.60750 14553 ft 304 kts 100°
2026-05-04 17:41 47.00918 27.63742 14218 ft 302 kts 100°
2026-05-04 17:41 47.00395 27.66713 13863 ft 300 kts 100°
2026-05-04 17:41 46.99874 27.69668 13529 ft 299 kts 100°
2026-05-04 17:41 46.99356 27.72603 13154 ft 297 kts 100°
2026-05-04 17:42 46.98842 27.75510 12810 ft 295 kts 99°
2026-05-04 17:42 46.98328 27.78407 12477 ft 293 kts 99°
2026-05-04 17:42 46.97816 27.81285 12127 ft 291 kts 99°
2026-05-04 17:42 46.97308 27.84142 11798 ft 289 kts 99°
2026-05-04 17:43 46.96804 27.86979 11479 ft 288 kts 99°
2026-05-04 17:43 46.96299 27.89815 11147 ft 288 kts 99°
2026-05-04 17:43 46.95797 27.92641 11060 ft 284 kts 99°
2026-05-04 17:43 46.95301 27.95417 10955 ft 281 kts 99°
2026-05-04 17:44 46.94800 27.98237 10470 ft 287 kts 99°
2026-05-04 17:44 46.94296 28.01051 10214 ft 283 kts 99°
2026-05-04 17:44 46.93801 28.03784 10092 ft 274 kts 98°
2026-05-04 17:44 46.93315 28.06465 9796 ft 273 kts 98°
2026-05-04 17:45 46.92861 28.09137 9512 ft 267 kts 92°
2026-05-04 17:45 46.92997 28.11747 9241 ft 254 kts 75°
2026-05-04 17:45 46.93069 28.14340 8943 ft 259 kts 88°
2026-05-04 17:45 46.92947 28.16929 8632 ft 258 kts 88°
2026-05-04 17:46 46.92845 28.19577 8349 ft 256 kts 87°
2026-05-04 17:46 46.92791 28.21293 8170 ft 255 kts 87°
2026-05-04 17:46 46.92722 28.23876 7903 ft 253 kts 86°
2026-05-04 17:46 46.92665 28.26446 7555 ft 254 kts 86°
2026-05-04 17:47 46.92614 28.29027 7259 ft 253 kts 86°
2026-05-04 17:47 46.92568 28.31584 7029 ft 250 kts 86°
2026-05-04 17:47 46.92526 28.34128 6726 ft 250 kts 86°
2026-05-04 17:47 46.92486 28.36674 6467 ft 249 kts 86°
2026-05-04 17:48 46.92447 28.39193 6214 ft 247 kts 86°
2026-05-04 17:48 46.92409 28.41723 5743 ft 253 kts 87°
2026-05-04 17:48 46.92371 28.44334 5297 ft 259 kts 88°
2026-05-04 17:48 46.92331 28.46972 4973 ft 259 kts 89°
2026-05-04 17:49 46.92291 28.49592 4674 ft 257 kts 89°
2026-05-04 17:49 46.92250 28.52210 4365 ft 257 kts 89°
2026-05-04 17:49 46.92208 28.54818 4074 ft 256 kts 89°
2026-05-04 17:49 46.92165 28.57411 3741 ft 255 kts 89°
2026-05-04 17:50 46.92119 28.59996 3441 ft 253 kts 90°
2026-05-04 17:50 46.92148 28.62558 3259 ft 248 kts 85°
2026-05-04 17:50 46.92236 28.65020 3196 ft 238 kts 86°
2026-05-04 17:50 46.92292 28.67394 3121 ft 229 kts 86°
2026-05-04 17:51 46.92332 28.69678 3048 ft 220 kts 87°
2026-05-04 17:51 46.92370 28.71830 2914 ft 213 kts 86°
2026-05-04 17:51 46.92410 28.73984 2651 ft 208 kts 87°
2026-05-04 17:51 46.92448 28.76048 2366 ft 197 kts 87°
2026-05-04 17:52 46.92483 28.77981 2115 ft 184 kts 87°
2026-05-04 17:52 46.92517 28.79787 1886 ft 172 kts 88°
2026-05-04 17:52 46.92549 28.81468 1677 ft 159 kts 88°
2026-05-04 17:52 46.92579 28.83006 1448 ft 145 kts 88°
2026-05-04 17:53 46.92605 28.84458 1278 ft 145 kts 88°
2026-05-04 17:53 46.92645 28.85905 1100 ft 144 kts 86°
2026-05-04 17:53 46.92693 28.87368 908 ft 142 kts 92°
2026-05-04 17:53 46.92694 28.88808 691 ft 144 kts 90°
2026-05-04 17:54 46.92715 28.89745 589 ft 143 kts 89°
2026-05-04 17:54 46.92721 28.89977 557 ft 143 kts 89°
2026-05-04 17:54 46.92747 28.91416 408 ft 135 kts 89°
2026-05-04 17:54 46.92770 28.92638 408 ft 103 kts 87°
2026-05-04 17:55 46.92790 28.93508 408 ft 69 kts 89°
2026-05-04 17:55 46.92800 28.94094 408 ft 53 kts 89°
2026-05-04 17:55 46.92811 28.94602 407 ft 47 kts 89°
2026-05-04 17:55 46.92818 28.94975 408 ft 18 kts 87°
2026-05-04 17:56 46.92853 28.95108 408 ft 11 kts 24°
2026-05-04 17:56 46.92934 28.95112 407 ft 13 kts 356°
2026-05-04 17:56 46.92979 28.95109 408 ft 0 kts 358°
2026-05-04 17:57 46.92980 28.95108 408 ft 1 kts 356°
2026-05-04 17:57 46.93010 28.95069 409 ft 13 kts 294°
2026-05-04 17:58 46.93029 28.94878 409 ft 24 kts 276°
2026-05-04 17:58 46.93049 28.94630 406 ft 25 kts 277°
2026-05-04 17:58 46.93070 28.94391 405 ft 23 kts 277°
2026-05-04 17:58 46.93090 28.94163 404 ft 23 kts 277°
2026-05-04 17:59 46.93111 28.93908 402 ft 28 kts 276°
2026-05-04 17:59 46.93130 28.93688 407 ft 14 kts 278°
2026-05-04 17:59 46.93224 28.93651 408 ft 5 kts 51°
2026-05-04 18:00 46.93225 28.93697 405 ft 5 kts 97°
2026-05-04 18:00 46.93222 28.93734 407 ft 0 kts 97°